Theta_e
312 317 319 319 322 323 322 319 318 322 321 319 319 319 318 317 315 314 314 308 302 308 311 309 309 308 307 308 307 306 304 301 300 299 299 300 300 299 300 301 302 303 304 304 302 301 299 298 297 296 296 296 295 295 295 295 295 294 294 294 294 293 293 293 293 293 293 293 293 293 293 293 293 292 292 292 292 292 291 291 291 291 291 291 292 292
312 319 319 320 320 321 323 316 313 315 313 313 316 316 315 315 315 312 310 308 304 307 311 310 309 309 307 307 307 306 304 302 301 299 300 301 300 299 300 301 302 303 303 302 301 301 299 297 296 295 295 295 296 295 295 295 294 294 294 293 293 293 293 293 293 293 293 293 293 293 293 293 293 292 292 292 292 292 291 291 291 291 291 291 291 292
316 320 319 317 310 310 314 310 311 315 313 314 316 315 316 314 315 313 309 307 306 307 312 311 309 309 308 308 307 307 307 307 305 303 303 303 301 300 301 302 302 301 301 301 301 301 300 298 296 295 295 295 296 295 295 295 294 294 293 293 293 293 293 293 293 293 293 293 293 293 293 293 292 292 292 291 291 291 291 291 291 291 291 291 291 292
320 323 316 307 305 311 313 308 311 314 313 316 315 316 318 315 315 317 313 308 307 307 309 310 308 308 309 308 308 308 307 308 307 306 306 305 303 303 304 304 303 302 302 301 301 301 300 299 296 296 295 295 295 295 295 294 294 294 293 293 293 293 293 292 292 292 292 292 292 292 292 292 292 291 291 291 291 291 291 291 291 291 291 291 291 291
321 318 305 301 307 317 316 309 310 313 315 317 315 315 317 317 316 317 314 310 310 309 307 309 311 312 314 312 312 309 305 305 306 305 305 304 304 304 304 304 304 303 303 303 302 301 300 300 298 297 296 295 295 295 295 294 294 294 294 293 293 292 292 292 292 292 292 292 292 292 292 292 291 291 291 291 291 291 291 291 291 291 291 291 291 291
318 309 304 307 309 313 317 314 314 314 317 320 319 316 315 318 316 313 312 311 316 317 308 309 314 315 316 316 316 314 310 309 306 304 304 303 304 303 303 304 304 304 304 303 303 302 302 301 299 297 296 295 295 295 295 294 294 294 293 293 292 292 292 292 292 292 292 292 292 292 292 291 291 291 291 290 291 291 290 290 290 290 290 290 290 290
315 305 306 315 313 312 315 316 315 314 316 319 318 315 312 313 313 312 312 312 319 319 309 309 316 316 314 317 321 319 317 315 311 309 307 304 304 303 304 307 306 305 305 303 303 302 302 301 300 298 297 296 296 295 295 294 294 294 293 292 292 292 292 292 292 292 292 291 292 291 291 291 290 291 291 290 290 290 290 290 290 290 290 290 290 290
312 307 308 313 314 314 314 315 316 312 317 320 313 312 314 312 313 313 311 311 314 312 309 311 313 313 313 315 319 318 316 315 312 312 310 306 305 305 307 309 308 308 307 305 304 303 303 302 301 300 299 298 297 295 294 294 294 293 293 292 292 292 292 292 292 292 292 291 291 291 291 291 290 290 291 290 290 290 290 290 290 290 290 290 290 290
310 314 313 312 314 314 314 317 313 311 317 318 307 308 313 312 314 313 311 311 310 308 312 313 309 311 315 313 313 312 313 315 314 316 314 309 306 307 309 312 311 311 309 307 307 306 305 304 303 302 300 299 297 295 294 294 294 293 293 292 292 292 292 292 292 291 291 291 291 291 290 290 290 290 290 290 290 290 290 290 290 290 290 290 290 289
309 311 310 312 317 315 315 311 306 312 315 308 303 307 309 309 310 311 310 311 310 310 315 314 309 311 316 315 312 310 311 315 316 317 315 308 306 308 311 312 312 312 310 309 309 308 307 305 304 302 300 299 297 295 294 294 293 293 292 292 292 292 292 292 292 291 291 291 291 290 290 290 290 290 290 290 290 289 289 290 290 290 290 290 289 289
306 304 304 310 313 310 309 304 300 307 308 302 307 314 314 311 307 308 310 310 312 316 316 313 310 311 315 315 313 312 314 318 319 316 315 310 306 308 311 312 312 311 310 310 310 309 307 304 302 300 299 299 297 295 294 293 293 293 292 292 292 291 291 291 291 291 291 291 291 290 290 290 290 290 290 290 290 289 289 289 290 290 290 290 289 289
307 307 308 308 305 304 308 307 301 301 301 304 315 318 317 316 312 312 314 312 315 319 316 311 307 309 314 314 312 312 313 316 318 319 321 318 310 310 313 312 312 311 310 310 309 308 306 304 302 300 299 298 296 295 294 293 293 293 292 292 292 291 291 291 291 291 291 291 290 290 290 290 290 290 290 289 289 289 289 289 289 290 290 289 289 288
314 312 310 306 304 305 314 315 307 304 304 309 317 318 319 319 318 320 318 315 318 318 312 306 306 309 311 312 311 311 312 313 312 312 316 315 311 312 313 312 311 310 310 309 308 308 307 305 304 302 300 298 297 296 294 293 293 292 292 292 292 291 291 291 291 291 291 290 290 290 290 290 289 290 289 289 289 289 289 289 289 289 289 289 289 288
319 313 308 309 308 306 313 316 314 313 308 308 315 319 320 321 323 326 322 316 316 317 309 303 307 311 310 311 312 311 311 313 309 306 308 310 311 313 312 310 310 310 310 309 308 308 307 307 306 304 302 300 298 297 294 293 293 292 292 292 292 291 291 291 291 291 290 290 290 290 289 289 289 289 289 289 289 289 289 289 289 289 289 288 288 288
319 316 312 313 312 308 310 312 315 315 308 308 314 315 317 323 325 326 324 318 316 319 312 304 309 315 312 313 316 310 307 309 308 307 307 309 311 311 310 310 310 311 311 310 308 308 308 307 306 304 303 301 299 297 295 293 293 293 292 292 292 291 291 291 291 290 290 290 290 289 289 289 289 289 289 289 289 289 289 289 289 289 288 288 288 287
315 317 315 307 306 307 309 307 308 312 310 308 311 312 315 319 318 316 317 315 315 318 314 309 312 314 311 312 313 309 307 308 308 307 306 308 310 309 307 309 311 312 312 311 310 309 308 306 305 304 303 301 298 297 295 294 293 293 292 292 292 291 291 291 291 290 290 290 289 289 289 289 289 289 289 289 289 289 289 289 288 288 288 288 287 287
315 318 312 303 304 304 304 304 304 310 312 309 309 313 313 311 313 316 315 309 310 315 316 314 314 312 310 311 311 310 311 313 310 307 305 305 307 306 305 309 311 312 312 312 311 310 308 306 305 304 303 301 299 298 296 294 293 293 292 292 292 291 291 291 290 290 290 289 289 289 289 289 289 289 289 289 289 288 289 288 288 288 288 287 287 287
318 318 311 307 311 304 297 300 302 302 306 312 314 313 308 308 312 317 318 315 314 316 317 316 314 311 311 311 309 308 311 312 310 309 306 303 303 303 304 308 311 312 313 312 311 310 308 306 306 305 303 302 300 298 297 295 293 292 292 292 292 291 291 290 290 290 290 289 289 289 289 289 289 289 289 289 289 288 288 288 288 288 287 287 287 287
317 315 314 307 308 303 296 302 307 302 300 307 310 306 308 314 315 315 316 317 317 317 318 318 313 310 311 312 311 312 313 311 310 309 307 305 304 301 303 308 312 313 313 312 312 311 310 309 308 306 304 302 300 298 296 295 293 292 292 292 291 291 290 290 290 290 289 289 289 289 289 289 289 289 288 288 288 288 288 287 287 287 287 287 287 286
315 315 317 306 301 303 302 306 313 308 301 301 303 302 306 313 315 315 314 315 317 316 316 315 311 311 313 315 315 315 314 313 311 311 309 307 304 302 305 310 312 313 312 312 312 312 311 311 309 306 304 302 300 298 296 294 293 292 292 291 291 290 290 290 290 289 289 289 289 289 288 288 288 288 288 288 288 288 287 287 287 287 287 287 286 286
314 314 316 308 301 305 308 308 311 311 305 303 305 306 306 307 310 312 311 312 316 317 316 316 312 311 314 318 319 316 314 313 311 312 313 308 304 305 309 312 312 312 312 312 312 311 311 310 308 305 302 300 299 297 295 293 292 292 292 291 290 290 290 290 289 289 289 289 289 288 288 288 288 288 288 288 287 287 287 287 287 287 286 286 286 285
315 316 315 313 309 309 310 307 305 309 309 306 307 307 306 307 310 312 311 310 312 314 317 317 313 311 313 317 319 318 318 317 311 312 315 308 305 309 312 312 312 311 311 311 311 310 310 309 308 305 302 299 298 296 294 293 292 292 291 291 290 290 290 289 289 289 289 288 288 288 288 288 288 288 287 287 287 287 287 287 286 286 286 286 286 285
315 318 315 315 315 310 305 302 299 303 308 308 308 308 307 307 309 313 312 311 312 311 311 313 313 312 313 316 320 320 320 316 309 308 311 306 306 311 312 311 311 311 310 310 309 309 309 308 306 304 301 299 297 295 294 293 292 292 291 290 290 290 289 289 289 289 288 288 288 288 288 288 288 288 287 287 287 287 287 286 286 286 286 285 285 285
312 317 314 313 316 310 303 301 300 302 306 308 309 307 307 307 308 312 312 311 313 312 310 312 312 311 312 318 321 320 315 308 303 303 306 305 306 309 309 309 310 309 309 309 308 308 308 306 304 302 300 299 297 295 294 292 292 291 290 290 290 289 289 289 289 288 288 288 288 288 288 288 287 287 287 287 287 287 286 286 286 286 285 285 285 284
312 316 315 313 316 315 310 307 306 306 306 308 310 308 306 307 307 309 310 308 311 311 310 312 312 310 313 316 316 315 312 308 304 302 302 303 304 306 307 308 308 307 307 307 307 307 306 305 304 302 301 298 296 295 293 292 292 291 290 290 290 289 289 289 288 288 288 288 288 288 288 287 287 287 287 287 287 286 286 286 286 286 285 285 284 283
314 318 315 312 314 314 312 310 312 312 307 306 309 308 306 307 307 308 309 309 310 310 309 311 311 310 311 312 311 311 311 309 305 300 300 301 302 304 306 307 306 306 306 306 306 305 305 304 303 302 300 298 296 294 293 292 291 291 290 290 289 289 289 288 288 288 288 288 288 288 287 287 287 287 287 287 287 287 287 286 286 285 284 284 283 282
317 318 313 313 313 311 310 310 313 314 311 308 310 309 307 307 307 308 310 310 310 309 309 310 310 310 311 310 310 310 309 309 308 305 302 302 303 305 306 306 306 305 305 305 304 303 303 303 302 300 299 296 295 294 293 292 291 290 290 289 289 288 288 288 288 288 288 288 288 287 287 287 287 287 287 287 287 287 286 286 285 284 283 283 282 281
317 316 312 313 312 311 311 310 311 313 313 311 311 309 307 306 306 308 309 309 310 310 310 310 310 310 310 309 309 309 309 309 309 308 306 305 306 307 306 306 305 304 304 304 303 303 303 302 301 299 297 295 294 293 292 291 291 290 290 289 289 288 288 288 288 288 288 287 287 287 287 287 287 287 287 287 287 287 286 285 284 283 283 282 281 281
314 313 311 313 312 311 311 310 310 311 309 309 310 310 308 307 306 307 307 308 309 310 310 310 310 310 309 309 309 309 309 309 308 308 307 307 307 307 306 305 303 303 304 303 303 303 303 302 301 299 297 295 294 293 292 291 290 290 289 289 288 288 288 288 288 288 288 287 287 287 287 287 287 287 287 287 287 286 285 284 283 282 282 281 281 281
310 312 312 312 311 311 311 310 310 309 308 308 309 309 309 307 306 306 306 307 308 308 309 309 309 309 308 308 309 308 309 308 307 307 307 307 307 307 306 305 303 303 304 303 304 304 302 302 300 298 296 295 293 292 291 291 290 290 289 288 288 288 288 288 288 287 287 287 287 287 287 287 287 287 287 287 286 285 284 283 282 281 281 280 280 280
307 310 311 311 311 312 311 311 310 310 309 308 308 309 309 308 307 306 306 306 307 308 308 307 308 308 307 308 308 308 307 307 307 307 307 307 307 307 306 305 304 304 304 304 304 303 302 301 299 297 296 295 294 292 291 291 290 289 288 288 288 288 287 288 287 287 287 287 287 287 287 287 287 287 287 286 285 284 283 282 281 281 281 280 280 280
308 309 310 310 311 311 311 311 311 310 309 308 309 309 309 309 309 308 307 307 307 307 307 308 308 307 307 308 308 307 307 308 308 307 306 307 307 306 306 306 306 306 305 305 305 303 302 300 299 298 297 295 293 292 291 291 290 289 288 288 287 287 287 287 287 287 287 287 287 287 287 287 287 287 286 286 284 283 282 281 281 281 280 280 280 280
309 310 310 310 310 310 311 311 312 312 310 310 310 310 309 309 309 309 308 308 308 308 308 308 308 308 308 309 309 308 308 309 308 306 306 307 307 306 307 306 306 307 307 306 306 305 303 302 301 300 298 295 294 292 291 291 290 289 288 288 287 287 287 287 287 287 287 287 287 287 287 287 287 287 286 285 283 282 281 281 281 280 280 280 280 280
309 309 309 309 310 310 311 310 311 312 311 311 312 312 312 311 310 310 310 309 309 309 308 308 308 308 309 309 309 309 308 308 308 308 308 307 307 307 308 307 307 307 307 307 306 305 304 303 301 299 297 295 293 292 291 290 289 289 288 287 287 287 287 287 287 287 287 287 287 287 287 287 287 286 285 284 283 282 281 280 280 280 279 280 280 280
308 308 308 308 309 309 309 310 311 312 311 311 312 313 312 311 311 311 310 309 309 309 309 309 308 308 309 309 309 308 308 308 308 308 308 308 307 308 307 307 307 307 307 307 306 305 304 302 300 298 296 294 292 291 290 289 288 288 287 287 287 287 287 287 287 287 287 287 287 287 287 287 286 285 284 283 282 281 280 280 280 279 279 279 280 280
308 308 307 308 309 308 308 309 311 312 311 310 311 310 309 309 309 309 309 309 309 309 309 309 308 308 309 309 308 308 308 308 307 308 308 307 307 308 307 307 308 307 307 306 306 305 304 303 301 299 297 295 292 291 290 289 288 287 287 287 287 287 287 287 287 287 287 287 287 287 287 287 286 284 283 282 281 280 280 280 279 279 279 279 280 280
307 308 308 308 309 309 309 309 311 311 310 310 310 309 310 310 309 309 309 310 309 308 308 308 308 308 308 308 308 308 308 307 306 307 307 307 308 308 307 307 307 307 306 306 305 304 303 302 301 299 297 295 292 290 289 289 288 287 287 287 287 287 287 287 287 287 287 287 287 287 287 286 285 284 283 282 281 280 280 279 279 279 279 279 279 280
307 308 309 309 310 310 310 310 310 311 311 311 309 309 310 310 310 310 310 310 309 309 309 309 308 308 308 308 308 307 307 308 308 308 308 308 308 308 308 308 307 306 306 305 304 303 302 300 299 297 296 294 291 290 289 288 287 287 287 287 287 287 287 287 287 287 287 287 287 287 286 285 284 283 282 281 280 279 279 279 278 278 278 278 279 279
307 307 308 309 309 310 311 311 311 311 311 310 310 311 309 307 308 311 310 309 310 309 308 309 309 309 309 309 308 308 309 309 309 308 308 308 308 308 308 308 307 306 305 304 303 302 301 299 298 296 294 292 291 289 288 287 287 287 287 287 287 287 287 287 287 287 287 287 287 286 285 284 283 283 281 280 279 279 278 278 278 278 278 278 279 279
307 307 307 308 308 309 310 310 310 311 311 311 311 310 306 304 308 314 312 311 312 311 308 309 310 309 309 308 308 309 309 309 309 309 309 308 308 308 309 308 307 306 305 304 303 301 299 299 297 295 293 291 290 289 287 287 287 287 287 287 287 287 287 287 287 287 287 287 286 286 285 284 283 282 281 280 279 278 278 278 277 277 277 278 278 278
307 308 307 307 308 308 309 310 310 310 311 312 310 305 303 305 311 314 312 312 313 311 308 307 308 308 307 307 307 308 308 308 309 310 308 307 307 307 307 306 306 305 304 302 301 300 298 297 296 295 293 291 289 288 287 287 287 287 287 287 287 287 287 287 287 286 286 286 286 285 284 283 282 281 280 279 279 278 277 277 277 277 277 277 278 278
307 307 307 308 308 308 308 309 310 310 311 310 307 303 304 309 312 312 311 310 311 310 307 307 307 306 307 306 305 307 308 309 309 309 308 307 306 305 304 304 305 304 302 300 297 297 296 294 293 292 291 289 288 288 287 286 287 287 287 287 287 287 287 287 286 286 286 286 285 284 283 282 282 280 279 279 278 278 277 277 276 276 276 277 277 278
309 308 308 307 308 308 308 309 310 311 311 309 306 305 306 309 311 311 310 310 310 309 308 307 307 307 307 306 306 307 309 309 309 308 308 307 305 303 303 304 304 303 302 300 297 296 294 293 292 290 289 288 287 287 287 287 287 287 287 287 287 287 287 286 286 286 286 285 284 283 282 282 281 280 279 278 278 277 277 276 276 276 276 276 277 277
310 311 310 309 309 309 309 309 310 311 311 308 307 307 307 308 310 310 310 310 309 309 309 307 307 308 308 307 308 309 308 308 307 307 307 306 304 303 302 302 302 302 300 299 297 296 294 293 291 290 288 287 286 286 286 286 287 287 287 287 287 287 287 286 286 286 285 284 283 282 281 281 280 279 279 278 277 277 276 276 276 276 276 276 276 276
311 312 312 311 310 311 311 310 309 309 309 307 308 309 308 308 309 309 310 309 309 309 309 308 308 308 308 307 308 308 307 307 307 307 307 305 304 303 302 302 301 301 300 298 296 295 293 292 292 290 287 286 286 286 286 286 287 287 287 287 287 287 286 286 286 286 285 283 282 281 281 280 279 279 278 277 277 277 276 276 275 275 275 275 275 276
311 311 312 312 311 310 310 310 310 309 308 307 307 309 309 308 308 308 308 308 308 309 310 309 308 308 308 307 307 307 307 308 307 307 306 304 303 302 301 301 300 298 297 296 295 293 292 291 290 289 287 286 285 286 286 286 286 287 287 287 287 287 286 286 286 285 284 282 281 281 280 279 279 278 277 277 277 277 276 275 275 275 275 275 275 275
311 311 311 311 312 312 312 312 312 311 309 308 307 307 308 308 308 308 307 307 308 309 309 308 308 308 307 307 307 307 308 308 307 306 305 303 302 302 301 300 299 298 297 296 295 293 292 290 289 288 286 286 286 286 286 286 286 286 287 287 287 286 286 286 286 284 283 281 281 280 279 279 278 277 277 277 276 276 276 275 275 274 274 274 274 274
311 311 311 311 311 312 312 312 311 311 310 309 308 306 306 307 308 308 308 308 308 308 308 307 307 307 306 306 307 307 307 307 306 306 305 303 303 302 301 299 298 297 296 294 293 293 291 290 289 287 286 286 286 286 286 286 286 286 286 286 286 286 286 286 285 283 282 281 280 280 279 279 278 277 277 276 276 276 275 275 275 274 274 274 273 273
310 311 312 312 312 312 312 312 312 311 310 309 308 307 307 307 308 308 308 308 308 307 307 307 307 307 306 306 306 306 306 306 306 305 304 303 302 302 301 299 298 297 296 294 293 292 291 290 289 287 286 286 286 286 286 286 286 287 286 286 286 286 286 285 284 282 281 280 280 279 279 279 278 277 276 276 275 274 274 274 274 274 274 273 273 273
309 310 311 312 312 312 312 312 311 312 311 310 309 309 309 309 308 307 308 307 307 307 307 307 307 307 306 306 306 305 305 305 305 304 303 303 303 303 302 300 296 295 295 294 293 291 290 289 288 287 286 286 286 286 286 286 286 287 287 286 286 286 286 285 283 281 280 280 279 279 279 278 277 277 276 276 275 274 273 273 273 273 273 273 273 272
310 310 311 312 312 312 312 311 310 311 311 311 310 310 310 310 309 308 308 308 308 308 308 307 307 306 306 306 306 305 304 305 305 303 302 302 303 303 302 299 297 295 294 293 292 290 287 287 286 286 286 286 286 286 286 286 287 287 287 286 286 286 285 284 282 281 280 279 279 278 278 278 277 276 276 275 274 273 273 273 272 272 272 272 272 273
Wind_Speed
3 2 4 6 7 8 9 9 6 5 6 5 4 4 5 5 7 6 3 4 1 2 9 8 9 14 17 15 17 20 17 23 30 24 27 32 31 32 36 41 45 47 49 46 45 46 45 44 43 41 39 37 35 34 33 31 29 26 24 22 20 18 16 14 12 11 11 11 11 11 11 12 14 14 15 16 18 19 20 22 23 25 26 27 30 32
3 4 10 9 9 7 6 6 6 5 5 4 5 4 4 4 7 6 1 4 1 2 6 5 6 15 17 14 17 18 12 20 27 22 28 34 30 32 36 42 45 45 45 44 45 46 45 45 44 43 41 40 39 38 36 34 30 27 25 23 21 19 17 15 13 13 12 12 11 11 11 12 14 14 15 16 18 19 21 22 24 25 26 28 30 33
1 7 12 8 8 6 4 5 6 6 5 3 4 2 4 3 5 6 3 4 1 2 5 6 8 17 18 15 18 19 19 27 29 25 33 35 29 33 38 41 43 42 42 44 46 47 47 47 46 45 45 43 42 40 38 35 31 29 27 24 22 20 18 16 15 14 13 12 11 12 12 13 14 14 15 16 18 18 19 21 23 24 26 28 31 33
3 8 8 7 11 8 5 4 6 5 3 2 3 3 4 3 1 4 3 3 1 2 4 7 10 15 16 14 15 18 23 29 31 29 35 34 30 36 39 39 40 41 43 44 46 47 47 48 49 49 49 47 45 42 40 37 34 32 28 25 23 21 19 17 16 15 14 13 12 12 13 14 14 15 16 16 18 19 20 21 22 24 26 28 31 32
8 6 3 8 7 7 6 3 5 5 2 3 5 6 6 4 5 6 3 3 2 1 2 6 10 11 7 8 10 7 9 18 25 26 29 32 34 36 36 37 39 41 43 44 45 46 47 49 51 52 51 49 48 46 44 40 37 34 29 26 24 22 20 18 17 15 14 13 12 13 13 14 14 15 17 18 19 20 21 22 23 25 27 29 31 32
9 5 8 8 3 5 6 4 5 7 3 4 6 10 10 7 6 3 3 4 4 3 3 5 8 8 1 3 7 4 2 8 12 15 21 27 30 31 34 37 39 40 42 43 44 44 46 48 51 53 53 52 51 50 46 42 38 34 30 27 25 23 21 19 18 16 14 13 13 13 14 14 15 16 18 20 21 22 23 24 25 26 28 30 32 33
4 1 5 6 5 5 4 5 6 7 5 2 4 7 8 5 3 1 2 2 0 3 3 4 2 9 3 3 6 5 6 9 8 10 18 23 24 28 33 36 37 38 40 41 42 42 44 47 49 53 55 56 55 52 47 43 39 34 31 29 26 24 22 20 18 16 14 14 13 14 14 15 16 17 18 20 22 23 24 25 25 26 27 29 31 32
2 4 4 5 6 5 4 6 6 9 7 3 3 4 6 6 5 4 3 1 3 2 4 0 3 8 9 6 6 6 9 12 11 13 17 19 23 28 31 32 31 33 36 37 39 41 44 46 49 52 55 56 56 53 49 44 40 37 33 30 27 25 23 21 19 16 15 14 14 14 14 15 17 18 20 21 22 23 24 25 26 27 28 29 31 32
3 5 5 7 5 4 6 5 7 11 5 4 3 5 6 6 5 4 4 2 2 3 4 4 4 5 11 5 1 1 6 10 12 15 15 15 21 26 27 26 25 26 29 32 36 38 41 43 46 49 52 54 55 53 50 46 42 38 34 31 29 26 24 21 19 17 15 14 14 15 15 16 18 20 21 22 24 24 25 26 27 28 29 30 31 33
2 4 6 8 6 6 5 1 3 8 4 4 6 6 6 5 5 4 3 3 1 1 7 8 8 5 11 4 4 3 3 9 11 13 13 13 18 23 22 21 20 22 25 27 31 33 37 40 42 45 48 51 54 53 50 45 42 38 35 33 30 28 25 22 19 17 15 15 15 15 16 16 18 20 22 23 24 25 26 27 28 29 31 32 33 34
2 2 1 4 5 5 6 4 3 3 4 8 6 5 6 5 4 3 1 3 1 5 8 9 13 10 9 3 7 4 5 8 9 8 10 11 16 21 20 17 17 18 20 22 25 29 34 37 39 42 45 49 52 52 50 46 43 40 37 35 31 28 26 22 19 17 16 15 15 15 16 17 19 21 22 23 24 25 26 27 28 30 32 32 34 34
2 2 2 3 6 8 8 5 5 5 5 6 4 4 3 4 3 4 3 3 1 7 5 4 9 10 10 6 4 6 6 7 8 8 9 8 14 20 18 16 15 15 17 19 22 26 31 35 38 41 44 48 51 52 51 49 46 42 39 36 33 30 26 22 19 17 16 16 15 16 16 18 19 21 23 24 25 26 27 28 29 31 32 33 34 34
2 4 2 2 5 7 6 5 3 3 2 4 4 5 3 3 3 3 3 1 3 8 3 2 3 5 12 10 6 8 10 10 11 11 12 10 14 20 17 15 15 15 17 19 21 24 28 32 36 39 43 46 49 52 53 51 48 44 41 37 34 31 27 23 20 17 16 16 15 16 17 18 20 21 23 24 25 26 27 29 30 32 33 34 35 35
3 4 2 3 3 8 10 5 3 2 3 5 5 5 3 1 1 3 4 2 5 7 2 3 3 4 9 7 11 17 17 18 19 19 20 17 19 21 18 17 18 19 21 21 22 24 26 30 33 36 40 44 47 50 52 53 50 46 42 38 35 31 27 23 20 18 16 15 16 16 17 18 20 21 22 23 25 26 27 29 31 32 34 35 36 37
4 7 4 6 2 9 12 6 4 6 5 5 4 5 5 5 4 5 4 4 7 6 3 1 2 4 4 3 9 13 14 20 26 26 23 22 26 25 23 23 24 24 25 24 25 26 27 29 30 33 37 41 45 47 51 54 52 48 44 40 35 31 27 23 20 18 16 16 16 16 17 19 20 21 22 23 24 25 27 29 31 32 34 36 37 38
4 8 5 1 1 8 8 3 5 8 3 2 3 4 3 5 5 3 3 4 1 5 5 3 4 6 4 2 4 3 5 14 23 23 19 24 32 28 25 28 28 28 28 28 28 28 27 28 29 32 35 39 42 45 50 54 53 49 45 40 35 31 27 23 21 18 16 16 16 16 18 19 20 21 22 23 24 25 27 29 31 32 34 36 38 39
2 6 2 2 2 4 4 2 3 3 3 3 2 3 4 4 5 2 3 1 4 3 7 2 5 10 6 5 5 4 5 11 13 12 13 23 29 23 22 30 31 29 29 28 28 28 27 27 28 31 34 37 40 44 49 53 54 50 45 40 35 31 28 24 21 19 17 16 16 17 18 19 20 21 22 24 24 25 27 29 31 32 34 36 38 40
3 4 3 3 2 3 2 2 2 2 4 6 4 5 3 2 3 3 2 3 2 4 6 4 9 15 12 8 0 5 8 13 11 9 11 18 21 19 24 32 31 28 27 27 27 27 26 26 27 30 32 35 38 42 46 51 52 49 44 40 36 31 28 24 21 19 17 17 16 17 18 19 20 21 22 24 24 25 27 29 30 32 34 36 39 41
4 4 5 2 1 1 1 2 2 2 2 5 3 3 3 3 2 2 2 3 4 4 6 11 15 16 15 8 2 6 12 14 12 11 10 12 15 18 26 32 30 28 27 27 27 26 25 25 27 30 32 34 37 40 44 48 50 49 44 40 35 31 27 23 21 19 18 17 17 17 18 18 20 21 22 23 24 26 28 29 31 33 35 37 39 42
3 4 4 1 2 1 2 2 6 3 1 2 1 1 2 2 4 3 3 3 3 3 5 13 16 14 11 6 8 11 13 12 11 11 10 12 16 21 27 30 28 26 26 26 25 23 23 24 27 30 32 33 36 39 43 47 50 49 45 40 35 31 27 23 21 19 18 18 17 17 18 18 20 21 22 23 24 27 28 29 32 33 36 39 40 43
3 3 5 1 3 1 3 6 8 9 7 4 3 3 2 1 2 1 2 3 4 4 3 6 12 16 7 8 10 11 11 11 12 11 9 11 18 25 28 29 26 25 25 23 22 21 23 25 28 30 32 33 36 38 42 47 50 49 45 40 35 30 26 23 21 19 18 18 17 17 18 18 20 21 22 23 24 27 29 30 32 34 37 39 41 43
3 3 5 3 2 5 6 4 2 4 8 9 8 8 8 6 4 1 4 2 3 4 5 4 10 19 6 7 5 7 7 9 11 11 9 11 21 27 28 27 25 23 22 20 21 23 24 26 29 31 32 34 36 39 43 48 50 49 44 39 34 29 26 23 21 19 18 18 17 17 17 18 20 21 21 23 25 27 29 31 33 35 38 40 42 44
3 2 3 5 6 5 4 2 0 2 5 6 5 6 7 6 6 6 8 5 2 2 2 4 6 18 6 7 3 6 7 9 13 13 10 13 22 26 25 25 22 20 20 20 23 25 26 28 30 31 33 34 37 39 44 49 51 48 43 38 33 29 26 23 21 20 18 17 17 17 17 18 20 21 21 24 26 27 30 32 34 36 38 41 43 44
3 2 3 6 6 3 4 3 2 2 3 3 4 4 6 8 9 8 6 3 3 5 3 4 6 19 9 5 4 5 6 9 12 13 13 14 19 22 21 20 18 19 21 23 25 27 28 30 30 31 34 36 38 41 46 51 51 47 42 37 32 28 26 24 21 19 18 17 16 17 17 18 20 20 22 24 26 28 30 33 35 37 39 41 43 44
6 2 4 4 6 5 4 3 3 4 1 4 4 5 8 11 10 4 1 1 3 6 8 5 10 19 11 2 4 3 5 7 7 11 15 15 17 19 19 18 20 23 25 25 27 29 30 31 31 33 35 37 39 42 47 52 51 47 41 36 31 28 26 24 21 19 17 16 16 16 17 18 19 20 22 24 26 29 31 34 36 38 39 41 42 43
9 4 7 7 9 11 11 8 3 2 2 3 2 6 11 15 15 8 3 6 8 6 10 8 15 20 17 11 9 9 11 12 9 9 13 16 18 20 21 24 27 28 27 28 29 29 30 31 32 34 36 37 40 43 49 52 50 45 40 34 31 28 26 23 20 19 17 16 16 16 17 18 19 20 22 25 27 30 33 35 37 38 39 40 41 41
4 3 10 14 15 14 15 14 6 7 5 5 7 11 14 18 19 12 7 10 8 5 7 18 24 22 21 23 24 20 20 20 15 9 10 14 20 24 27 31 31 29 29 29 28 29 30 32 33 35 36 38 40 45 49 52 49 45 39 34 31 28 25 23 20 18 17 16 16 16 17 17 19 21 23 26 29 31 34 35 36 37 38 39 40 40
2 4 13 17 20 19 20 20 9 8 7 10 10 13 16 17 18 16 16 17 8 5 13 24 23 18 20 26 29 27 27 24 16 13 14 18 23 27 29 31 28 27 27 27 28 30 31 33 34 35 37 38 41 45 49 50 48 43 38 34 31 28 25 22 20 18 16 15 15 16 16 17 19 21 24 27 30 32 34 35 36 36 37 38 38 39
2 7 14 16 19 19 19 21 11 6 8 10 9 14 18 17 18 20 22 22 16 14 19 20 16 15 21 29 29 27 26 20 15 20 24 24 26 26 26 27 25 25 27 28 31 32 32 34 35 35 37 39 42 46 49 50 47 42 38 34 31 28 24 22 19 17 16 15 15 15 16 17 20 22 25 28 31 33 34 34 34 35 36 37 38 38
3 7 12 12 13 14 16 18 10 5 11 14 12 16 20 17 17 19 23 27 28 26 22 19 17 18 24 28 24 25 29 23 20 28 33 32 32 31 31 29 26 28 31 32 34 35 34 35 35 36 38 39 43 47 50 51 48 43 38 34 30 27 24 21 19 17 15 15 14 15 16 18 20 23 26 29 31 32 33 33 33 34 35 36 37 37
4 7 9 6 7 12 17 18 10 9 16 17 16 24 26 15 11 18 25 26 25 22 20 20 20 19 24 24 19 25 33 28 23 28 34 37 37 34 34 32 29 32 35 35 36 36 35 35 35 36 38 40 44 48 51 52 48 43 37 33 30 27 24 21 18 16 15 14 14 15 16 18 21 23 27 29 31 31 31 31 32 33 35 36 36 36
4 5 4 3 6 12 17 16 11 10 11 12 19 29 27 14 12 20 24 20 16 15 17 19 17 18 21 18 14 19 21 17 17 22 27 33 34 31 32 34 34 36 37 37 37 36 35 35 36 37 39 41 44 48 52 52 48 42 37 33 30 26 23 20 17 15 14 13 14 15 16 18 21 24 27 29 30 30 30 30 31 33 35 35 35 35
4 3 4 5 7 12 16 13 5 4 4 9 16 21 20 17 19 23 24 21 15 11 12 16 16 19 21 17 16 19 14 10 14 21 26 29 29 31 34 35 36 37 37 37 37 35 35 35 36 37 39 41 44 48 52 52 48 41 36 33 30 26 23 20 17 15 14 13 13 15 16 19 21 24 26 28 28 28 28 29 31 33 34 34 34 35
5 6 7 7 8 12 11 4 4 4 10 11 6 7 12 17 20 23 25 25 17 11 14 17 18 23 23 20 23 22 17 17 25 34 38 30 26 35 39 35 34 37 38 38 36 35 34 34 34 36 38 40 44 47 50 49 44 39 36 32 29 26 22 19 17 14 13 12 13 14 16 19 22 24 26 26 26 26 27 29 30 32 33 33 33 34
9 10 9 7 7 7 2 5 4 9 11 6 2 5 12 13 16 21 23 20 15 16 21 21 22 26 27 26 26 23 25 32 38 46 47 32 29 41 41 36 38 40 40 40 36 35 34 32 33 35 38 41 44 47 49 47 42 38 36 32 28 25 21 18 15 13 12 12 13 14 17 20 22 24 24 24 25 25 27 29 30 31 32 32 32 34
13 10 7 6 6 3 3 6 9 8 4 6 9 14 13 10 11 14 15 14 13 17 22 21 21 26 27 26 27 29 36 36 34 45 48 33 33 45 42 39 45 43 41 40 37 34 33 31 32 34 37 41 44 47 49 47 43 39 35 31 27 23 20 17 14 12 11 11 13 14 17 20 22 23 23 23 24 25 26 28 29 30 31 31 32 33
15 12 7 7 8 5 6 10 9 6 8 11 16 19 13 9 10 9 9 12 15 19 21 18 20 26 24 22 27 34 35 23 16 34 45 32 31 43 41 39 42 38 35 36 33 31 30 28 30 33 36 40 43 46 49 47 43 38 34 30 26 22 19 16 13 11 10 11 13 15 18 20 21 21 22 22 24 25 26 27 28 29 30 31 32 34
17 14 11 9 7 7 9 9 6 7 8 13 23 25 12 9 10 9 6 11 18 24 23 17 20 26 23 21 25 22 17 11 7 22 35 29 27 36 35 33 32 28 26 28 27 26 26 26 30 33 35 38 41 46 48 45 41 37 33 29 25 21 18 15 12 10 10 10 13 15 18 20 20 20 21 22 23 25 26 27 27 28 29 30 32 34
18 13 13 11 7 7 10 8 8 10 9 13 22 20 8 11 11 5 1 11 20 25 24 18 21 24 20 20 21 11 5 7 8 17 33 34 29 29 29 27 27 23 22 24 23 24 25 26 29 32 34 37 41 46 47 43 39 36 32 28 24 20 17 14 11 9 9 10 13 15 17 18 19 20 20 21 23 25 26 27 27 27 27 29 31 34
15 11 10 11 10 12 12 9 9 7 6 13 19 11 9 17 12 7 2 14 20 19 19 17 18 21 20 18 16 8 7 11 13 21 33 32 24 22 22 22 23 22 22 22 22 22 23 25 28 32 35 38 43 47 46 42 38 35 30 27 23 19 16 13 10 8 8 10 13 15 16 17 17 18 20 21 22 24 25 26 26 27 27 28 30 33
8 8 9 11 13 15 14 12 10 6 6 13 12 7 16 16 9 2 10 19 17 9 15 19 18 22 23 17 11 10 16 26 31 33 33 26 21 21 19 17 19 20 20 20 20 21 23 25 27 30 34 38 44 47 46 42 38 34 29 25 21 18 15 12 9 8 8 10 12 13 14 15 16 17 19 21 22 23 24 25 26 26 27 28 29 32
4 5 7 9 11 12 12 13 9 6 11 14 9 17 18 9 4 11 20 25 19 8 13 20 21 23 26 22 20 23 30 38 40 37 34 31 27 23 19 18 20 21 20 19 19 20 23 26 28 31 35 41 46 47 44 40 36 32 28 24 20 17 14 11 8 7 8 9 11 12 13 14 15 16 18 20 21 22 22 23 24 25 27 28 29 32
9 6 6 7 8 8 8 11 8 6 13 16 13 12 11 10 14 19 20 22 25 21 19 21 23 26 27 26 28 32 35 37 37 36 37 36 31 26 23 22 22 21 22 21 21 22 25 28 32 35 40 45 47 45 42 39 34 30 26 23 19 16 13 10 8 7 8 9 9 10 11 13 14 15 17 18 20 21 22 22 23 25 26 27 29 31
9 8 6 6 8 7 7 10 10 8 13 22 21 11 15 28 37 34 23 18 26 31 25 20 25 32 30 28 31 34 36 37 37 36 37 37 34 31 28 26 24 23 23 22 23 24 27 30 33 39 44 46 46 43 39 36 32 29 25 21 18 15 12 9 7 7 7 8 8 8 10 12 13 15 16 17 19 20 21 22 23 24 26 27 28 31
12 14 13 10 10 11 12 12 11 10 15 27 31 27 31 44 52 50 38 26 25 32 31 25 29 34 32 32 33 32 34 38 39 38 39 39 37 34 31 29 27 25 25 25 26 27 29 31 35 42 47 47 44 41 37 33 30 27 24 21 17 14 11 9 7 7 7 6 6 7 9 11 13 14 15 16 18 19 20 21 22 24 25 27 28 30
15 18 17 12 10 13 15 14 12 12 17 26 37 42 43 44 47 50 47 34 30 38 41 33 31 32 32 32 32 31 36 41 40 39 40 38 35 34 32 30 28 27 28 29 29 31 33 34 38 45 49 48 44 40 36 33 29 25 22 20 17 14 11 8 7 7 6 5 5 6 7 10 12 13 14 15 16 18 19 20 22 24 25 27 28 29
13 17 15 12 12 13 13 14 16 19 22 26 34 40 42 43 44 44 43 39 41 50 48 39 35 35 32 30 32 35 41 42 39 38 38 36 36 35 34 33 33 32 32 32 32 33 36 39 44 49 51 49 44 41 37 34 30 26 22 19 17 13 11 9 8 6 5 4 5 6 7 9 10 11 12 14 15 16 17 18 21 24 26 27 28 29
11 18 17 16 17 17 17 17 19 23 28 32 32 30 34 42 46 43 42 44 49 50 45 39 38 37 34 34 37 40 42 41 40 40 39 37 37 37 36 36 35 34 33 33 33 34 37 42 47 51 52 49 45 42 37 33 30 26 22 19 16 13 11 9 7 5 4 4 5 7 8 9 10 9 10 12 15 16 17 17 18 21 24 26 27 28
3 11 14 14 17 18 19 18 16 15 18 22 26 29 36 43 46 45 45 47 46 44 43 42 42 40 39 42 43 42 41 42 43 42 39 38 37 38 39 38 37 36 36 35 35 37 40 45 50 52 51 48 45 41 37 33 29 25 22 19 16 13 12 10 7 5 4 5 6 7 8 9 10 10 10 11 12 14 17 19 20 21 21 22 24 24
6 6 7 9 12 13 12 12 14 14 12 14 25 36 41 43 43 42 42 42 42 44 48 49 48 46 45 46 46 43 42 44 45 41 39 40 39 40 41 40 38 38 37 36 36 39 43 47 50 52 51 47 44 40 36 32 29 25 22 18 16 14 12 9 7 5 5 6 6 7 8 9 9 10 11 11 10 10 11 15 19 21 21 21 21 20
11 11 8 9 12 13 12 13 15 13 12 18 31 40 43 42 41 40 42 45 47 49 50 50 48 47 48 50 50 46 45 48 48 44 42 42 42 42 43 42 41 41 40 39 40 43 47 50 51 52 50 46 43 39 35 32 28 25 21 18 17 15 12 9 7 6 6 6 6 6 7 9 9 9 11 11 10 10 10 10 11 15 18 20 20 20
Wind_Direction
127 203 228 221 211 206 211 197 188 177 145 140 149 182 221 233 265 254 234 279 116 218 263 245 244 259 260 263 267 264 247 239 246 244 242 244 238 232 231 233 233 233 237 236 231 229 227 225 225 225 226 225 226 227 228 229 231 232 233 235 236 238 241 245 250 258 266 274 283 290 300 306 312 318 323 326 328 329 329 330 331 330 330 329 327 324
111 211 238 224 205 198 196 174 135 119 119 117 149 199 250 225 254 267 276 315 355 177 266 285 281 269 262 261 263 260 244 241 241 233 240 244 238 235 235 237 238 238 239 235 232 231 227 226 225 226 227 226 227 227 227 229 230 232 234 235 236 238 241 244 250 256 262 269 277 287 296 305 311 318 323 324 326 328 329 328 328 328 328 327 326 324
111 238 247 210 156 115 89 123 125 124 122 112 136 168 262 235 266 296 349 354 13 181 271 310 296 274 268 261 256 245 235 250 250 237 244 246 237 236 238 240 240 239 237 235 234 232 229 227 225 226 227 227 229 229 229 229 230 232 233 234 236 238 240 244 249 253 259 268 277 288 297 307 313 317 320 322 323 324 325 324 324 325 325 326 324 322
204 255 256 168 141 114 80 109 117 108 120 147 147 168 248 241 263 286 309 330 249 188 279 294 281 273 269 258 256 247 238 252 259 252 252 250 241 243 245 245 243 240 238 237 236 234 230 227 225 226 228 228 228 228 228 228 229 231 232 235 237 237 239 242 246 252 260 270 280 290 299 308 313 316 317 319 320 320 321 322 322 324 325 325 323 322
229 246 145 123 132 123 118 145 140 145 225 242 196 203 234 235 220 236 293 326 313 354 333 311 291 276 263 245 255 264 244 254 258 255 254 249 245 247 249 248 246 244 243 240 238 235 231 229 227 228 228 228 228 228 227 227 229 231 233 235 236 236 238 241 246 253 261 271 282 291 300 308 313 315 316 317 319 320 322 324 325 327 328 326 324 323
250 221 133 118 98 117 135 190 191 174 205 293 232 216 224 229 232 250 351 4 0 335 330 3 320 288 283 224 255 285 292 257 256 255 253 249 245 243 244 247 246 246 245 243 242 239 236 233 230 228 229 228 229 229 229 228 229 231 233 234 234 236 238 242 247 254 262 271 281 291 300 306 310 314 315 317 321 322 324 326 327 329 330 327 325 324
259 149 126 132 143 152 177 235 225 172 150 291 250 211 208 200 188 160 44 27 317 266 300 47 321 278 280 192 240 254 256 259 261 265 261 256 249 241 244 249 248 247 246 243 242 240 239 236 231 229 229 230 231 231 229 227 228 229 231 233 233 236 239 242 248 254 263 272 281 291 299 303 307 312 315 317 319 321 323 325 326 328 329 326 323 323
126 95 82 113 134 158 201 243 222 158 141 240 245 131 139 141 152 165 114 134 234 277 317 331 179 274 278 230 230 233 247 270 275 270 268 260 250 245 248 253 251 251 249 246 243 241 240 238 234 233 232 232 232 231 227 225 226 227 229 232 234 235 238 242 248 255 263 273 282 291 298 303 308 312 315 317 318 320 322 324 327 329 328 325 322 322
115 147 174 148 136 179 204 239 198 162 152 238 198 114 118 127 136 135 117 181 274 24 301 249 158 266 275 242 284 274 231 263 267 259 262 256 247 246 247 250 253 255 253 250 248 247 245 243 240 238 235 234 232 230 227 225 225 227 229 231 233 235 237 242 248 255 263 273 282 290 297 302 308 311 315 317 318 320 322 325 329 329 327 324 323 322
86 170 192 150 152 206 206 308 184 174 187 175 141 96 77 72 79 80 112 150 29 333 257 238 166 222 274 218 120 60 202 241 253 254 258 255 249 245 242 245 250 254 254 252 253 252 251 248 245 240 236 234 232 229 227 225 225 226 228 230 232 234 237 241 247 254 264 272 281 288 295 301 306 310 313 315 318 320 322 327 330 328 325 323 323 321
68 93 188 164 174 172 136 70 45 105 142 136 114 67 52 39 53 50 49 95 24 267 255 232 180 190 272 236 155 180 200 209 222 244 256 257 251 243 238 244 251 254 256 255 255 254 252 249 245 240 237 234 232 229 225 223 224 225 227 230 232 235 236 240 245 253 263 271 279 286 293 300 304 308 311 314 317 320 323 328 329 325 323 322 322 321
15 122 239 209 166 130 106 71 40 65 114 117 89 67 39 341 9 19 355 57 263 254 258 237 181 187 242 246 184 224 243 220 208 223 239 239 243 241 239 249 258 261 263 259 256 253 249 246 242 239 237 234 231 228 224 222 222 223 226 229 231 234 236 239 244 251 260 268 277 284 291 298 303 307 311 314 318 320 324 328 326 322 321 321 320 320
292 217 220 169 172 161 124 79 36 17 65 100 92 85 49 325 350 343 300 121 230 255 255 148 156 217 245 247 239 249 257 245 227 222 222 220 239 248 250 257 264 269 269 264 259 254 250 247 244 241 238 234 232 229 224 222 221 222 225 228 230 233 236 238 242 249 257 265 274 282 290 296 301 307 310 315 318 321 325 326 323 321 320 320 320 320
291 292 149 153 222 190 169 158 198 236 165 158 141 126 142 153 62 277 267 277 268 269 274 136 145 250 268 260 227 226 230 231 232 231 228 233 247 255 258 263 269 272 271 268 262 258 256 253 249 246 241 237 234 230 224 221 221 221 223 226 230 232 234 237 242 248 254 263 271 279 288 294 300 306 310 314 317 321 325 323 320 319 319 319 320 320
247 287 200 178 207 176 183 197 165 135 147 179 155 141 160 155 174 230 234 249 274 290 294 234 183 223 257 270 217 222 230 230 234 238 238 246 256 259 262 264 267 270 271 270 266 263 262 258 253 248 244 240 236 230 224 221 221 221 223 226 228 231 234 237 241 246 252 260 269 278 286 293 299 304 308 312 316 320 322 319 317 317 317 318 319 319
222 267 237 182 86 162 178 192 119 113 133 205 126 123 182 177 175 224 218 194 249 316 290 230 223 226 220 274 248 231 238 230 234 240 241 249 254 257 259 260 262 266 268 268 267 267 264 259 253 250 246 241 236 230 225 222 220 221 222 225 227 229 233 236 239 245 251 258 268 277 284 292 298 303 307 310 315 318 318 316 315 316 317 317 318 318
198 277 284 40 345 180 173 170 135 135 165 165 148 174 206 181 139 156 264 35 66 289 274 234 257 274 280 271 240 176 206 229 233 236 235 242 248 250 252 255 257 260 264 267 268 268 264 260 256 253 248 243 238 233 227 223 220 221 222 224 226 228 231 235 238 244 250 257 266 275 283 291 297 302 306 309 313 316 314 314 314 315 316 317 317 318
179 269 250 162 211 224 162 111 66 35 127 133 191 208 177 123 99 113 255 347 25 254 272 272 265 278 281 276 277 131 213 238 238 233 234 242 246 246 248 250 252 255 259 264 266 265 264 262 260 255 251 246 242 236 230 224 220 220 222 225 227 228 231 234 237 243 249 256 265 274 282 290 296 301 305 309 313 314 312 312 313 314 316 316 317 317
171 238 251 164 145 167 72 102 100 6 88 128 193 195 118 142 165 117 165 234 249 238 276 280 274 273 265 251 165 179 214 228 235 234 232 241 243 241 244 247 247 250 256 261 263 263 263 263 262 256 250 246 241 235 230 223 218 219 222 224 226 227 229 232 236 242 249 257 265 274 281 289 296 301 305 309 313 312 311 313 314 315 316 316 317 317
157 216 249 358 351 29 55 188 189 196 85 72 86 81 60 162 169 167 169 180 205 196 267 284 284 276 255 189 166 203 215 215 225 229 225 232 234 233 239 242 243 250 257 260 260 262 264 264 262 256 250 246 240 234 227 220 217 218 220 222 223 225 227 231 236 241 249 258 265 273 282 290 296 300 304 309 311 311 311 313 314 316 316 317 317 317
95 215 232 348 339 251 185 207 199 186 171 155 166 175 204 164 120 214 232 124 140 180 230 274 280 274 251 142 165 199 208 207 210 216 217 223 232 234 236 239 246 255 259 258 257 261 263 263 260 253 247 242 237 231 224 218 216 218 220 221 221 223 227 230 235 241 249 257 266 275 284 291 297 300 305 310 310 310 312 314 315 316 316 317 317 316
149 204 214 194 253 234 223 223 192 179 173 172 185 187 190 180 131 176 250 223 151 193 202 188 265 272 252 118 162 187 187 207 204 207 215 218 227 233 237 243 253 259 256 255 258 261 262 260 256 250 243 237 232 227 221 216 216 218 219 219 220 222 225 229 234 240 248 257 266 276 284 291 297 301 306 309 309 311 313 315 316 317 317 316 317 317
126 125 212 234 239 238 260 289 302 214 158 158 203 192 177 172 148 178 226 230 158 207 211 114 266 268 255 100 144 174 172 209 207 203 213 220 226 232 241 250 255 254 252 254 257 258 259 257 253 247 241 236 230 225 218 215 215 217 218 218 219 221 224 228 234 239 246 257 266 276 285 291 297 302 306 308 309 312 314 315 316 316 317 317 318 319
102 110 207 253 276 321 348 353 341 343 94 146 237 182 167 195 195 203 216 185 169 204 181 96 253 262 270 89 146 193 201 226 220 212 219 227 233 238 244 247 248 250 253 255 255 257 256 252 248 244 239 235 228 222 217 215 215 215 216 217 218 220 223 227 232 239 246 256 266 276 285 292 297 302 307 309 311 313 314 315 316 316 318 319 320 321
167 179 171 222 281 291 297 319 350 336 282 212 230 172 190 213 209 223 17 98 231 198 156 156 245 258 269 102 136 209 245 248 234 220 229 237 241 243 244 248 254 256 256 256 256 256 254 251 249 246 240 234 227 220 216 214 214 215 215 216 217 219 222 226 230 237 247 256 266 277 285 292 299 304 308 310 311 314 314 315 316 318 321 322 321 323
173 192 171 195 237 239 248 250 228 232 209 216 222 176 197 209 203 205 212 218 230 177 147 196 244 255 267 271 263 261 258 257 244 221 227 239 245 249 253 260 262 259 258 259 258 256 253 252 249 244 239 233 226 220 216 214 213 214 214 215 216 218 221 225 230 237 246 257 266 277 285 293 300 305 308 311 312 313 314 316 319 322 324 323 323 326
160 207 193 211 227 228 247 252 201 131 154 199 203 194 202 210 206 204 224 231 219 148 183 229 240 253 270 275 274 271 266 266 265 253 241 246 255 260 264 267 266 261 260 260 257 254 252 251 248 243 238 231 224 219 216 214 213 213 213 213 214 216 219 223 229 237 246 257 267 277 286 294 301 305 308 312 313 313 315 318 322 324 325 325 326 329
127 229 213 223 232 232 247 253 217 150 195 213 198 205 214 211 203 205 225 231 202 156 231 238 241 255 268 268 269 271 271 271 276 277 272 270 271 271 270 269 265 260 260 257 254 255 254 251 247 242 236 229 222 218 214 212 212 212 213 213 213 215 218 222 229 236 246 257 268 279 288 295 302 307 310 312 313 314 318 322 325 326 327 327 329 330
161 231 228 230 239 241 251 257 237 181 234 236 204 217 225 212 202 208 225 233 221 220 240 244 242 247 254 258 261 266 270 276 284 285 284 282 277 274 272 267 260 258 260 258 258 258 256 253 248 242 235 228 221 217 212 210 211 211 211 211 211 212 215 220 228 236 247 258 269 280 289 298 304 309 311 312 313 317 321 324 327 328 329 330 331 331
161 239 243 241 254 258 257 259 244 200 251 256 239 239 239 224 209 214 227 234 232 236 249 258 254 248 251 256 260 268 275 284 292 289 287 283 278 277 275 268 261 261 261 259 261 261 258 254 249 241 233 226 220 216 212 210 210 209 209 208 208 211 214 219 227 236 247 259 271 282 291 301 307 310 311 312 316 320 323 326 329 330 330 331 331 331
193 233 246 256 278 268 262 267 259 227 245 255 255 255 250 234 211 224 234 237 240 248 258 263 264 259 256 258 263 273 278 284 288 283 280 278 278 278 277 273 268 264 263 262 263 262 257 251 244 237 231 226 222 216 211 210 209 208 207 206 207 210 212 218 226 235 247 260 273 285 295 304 308 310 311 315 319 323 325 329 331 331 330 331 331 330
208 231 253 278 275 263 265 273 264 234 240 252 253 255 254 240 222 236 242 240 241 250 258 262 263 259 261 266 267 266 268 270 271 270 270 274 275 274 272 272 270 267 265 266 264 260 255 248 241 237 233 227 221 215 211 210 208 206 205 205 206 207 211 217 225 235 248 262 276 288 299 306 308 311 313 317 321 324 327 331 332 331 330 330 331 330
191 214 243 246 252 260 264 265 240 179 225 249 246 249 252 247 243 250 257 254 239 230 247 256 256 259 268 276 271 264 256 243 253 262 266 270 274 273 270 268 269 270 270 269 266 261 256 251 246 241 235 228 221 216 212 210 207 205 204 204 204 206 210 216 224 236 248 264 279 290 301 306 308 311 315 320 323 326 330 332 332 331 329 330 331 330
202 220 240 239 245 257 256 231 123 174 232 246 237 216 230 241 246 250 257 259 248 228 237 247 255 266 271 268 266 268 268 265 266 268 269 269 272 274 273 271 271 273 273 271 267 263 259 253 246 239 233 227 221 215 211 207 205 204 202 202 203 205 209 215 224 236 249 266 281 293 303 306 308 313 318 322 325 328 331 332 332 329 328 330 331 331
224 225 233 232 241 253 205 127 185 224 230 249 306 237 233 235 241 249 256 262 256 246 246 246 252 260 262 262 266 270 272 271 273 274 272 268 267 270 272 274 274 272 272 271 267 264 259 250 242 235 228 223 218 213 207 203 201 202 200 200 201 203 209 215 223 237 252 269 284 296 302 306 310 316 321 324 326 329 332 332 331 328 328 331 333 333
227 226 228 223 227 238 141 189 226 243 272 313 294 266 250 233 237 255 267 266 251 245 248 246 248 253 256 263 269 270 272 275 277 277 274 266 265 269 268 270 274 272 272 273 270 266 261 252 245 237 228 222 216 209 204 201 199 199 196 197 199 202 209 216 224 239 255 272 288 298 303 307 314 319 322 325 327 329 332 331 330 328 329 333 335 335
221 221 223 222 216 215 221 225 238 281 304 289 269 256 239 211 217 235 257 262 254 247 246 243 248 254 254 259 263 265 273 284 289 279 275 269 268 271 270 271 276 276 275 275 272 267 263 254 244 235 226 221 214 206 202 199 198 196 194 195 198 201 207 215 224 239 258 277 291 300 305 311 318 321 323 326 327 329 331 330 329 329 332 335 336 337
217 217 216 223 215 210 233 242 240 249 252 246 248 249 233 180 188 196 224 264 262 255 249 240 244 252 253 252 255 257 271 289 280 273 278 279 274 274 275 277 279 276 269 266 262 256 250 240 234 229 223 218 210 202 199 197 195 194 193 195 197 200 206 214 223 240 261 282 294 302 309 314 319 322 324 327 328 329 330 329 329 331 335 337 338 338
217 215 217 229 226 213 231 239 227 230 232 234 246 254 220 164 166 133 65 265 258 253 248 238 237 244 246 249 248 233 226 260 254 264 273 276 274 274 277 278 275 269 262 258 255 252 244 235 228 222 217 213 204 197 196 195 193 192 192 193 196 199 204 212 223 241 263 285 296 305 312 317 320 323 325 327 329 329 329 329 330 333 337 340 339 339
213 210 215 224 227 225 230 235 235 239 239 242 251 252 150 147 140 83 340 259 258 249 233 224 229 234 233 237 236 211 198 226 240 260 267 269 268 265 266 267 264 260 256 252 249 245 239 233 225 217 211 207 200 194 193 192 190 190 191 192 195 198 203 211 223 241 266 286 298 307 314 319 322 323 324 327 328 329 328 328 330 334 338 342 341 339
205 203 209 215 222 225 225 232 241 237 237 248 246 178 138 131 117 125 238 248 258 238 200 204 219 226 224 219 207 203 221 230 239 253 261 262 261 256 252 253 254 252 251 249 245 240 234 228 225 219 210 202 197 192 190 189 188 188 189 191 193 196 202 210 222 244 270 288 300 309 316 319 322 323 324 325 327 328 328 328 331 335 340 343 343 341
182 189 210 213 220 223 222 234 243 230 233 235 186 151 155 154 194 229 237 250 260 245 202 210 220 222 218 211 204 214 231 238 241 247 252 253 254 250 243 245 247 244 243 240 235 231 223 214 211 208 201 195 193 191 189 188 187 186 187 189 192 195 200 208 223 248 273 290 302 312 317 319 321 321 322 323 325 327 328 329 332 336 341 345 345 343
177 180 205 199 206 218 223 227 230 233 225 205 163 150 177 205 232 237 245 258 263 258 243 233 234 233 223 212 213 222 235 242 242 242 246 247 246 243 241 244 246 245 244 240 232 226 219 209 203 200 195 190 189 190 188 186 186 185 186 187 189 192 199 209 224 252 276 291 305 315 317 317 318 318 320 323 324 326 327 329 334 339 343 346 346 346
174 184 211 198 192 204 220 214 212 234 213 181 169 187 208 212 227 239 243 250 256 257 253 241 242 243 231 217 220 229 236 239 239 239 241 240 238 238 238 239 239 238 235 233 228 221 215 209 202 195 190 188 187 187 186 185 185 185 185 186 188 191 198 209 229 256 277 293 309 314 314 314 314 314 319 323 324 325 327 330 336 342 346 348 349 349
185 197 220 225 204 202 222 221 208 227 222 196 195 215 223 218 225 234 238 240 247 253 251 242 242 246 239 228 227 232 236 239 241 241 240 238 236 236 235 234 236 234 229 224 220 214 211 209 202 193 187 185 184 183 182 182 184 186 185 185 187 191 197 211 234 257 276 295 307 309 310 311 310 313 319 323 323 325 329 333 340 346 348 350 353 352
205 210 223 232 223 218 229 230 214 219 225 213 212 222 229 228 227 232 238 241 244 248 249 245 245 249 247 237 231 232 239 244 245 243 241 238 236 233 231 231 229 225 222 217 211 207 204 202 197 191 186 183 181 181 180 180 182 185 186 185 187 191 198 214 237 256 274 292 299 300 302 304 308 313 320 323 323 326 332 338 344 349 350 352 355 355
218 222 227 229 227 230 230 221 217 223 226 223 221 223 230 235 234 233 237 240 243 248 250 251 253 255 252 244 237 239 244 246 244 243 241 237 234 233 232 230 225 222 220 217 211 207 201 196 193 190 186 183 180 180 181 181 181 183 185 186 188 190 198 217 237 252 269 282 284 287 292 296 303 311 318 322 322 326 335 343 348 350 352 354 356 357
213 212 221 228 227 233 237 228 226 233 234 231 228 223 226 235 238 237 237 239 243 248 251 252 255 254 250 246 244 244 246 246 244 243 240 237 236 235 233 229 224 220 217 213 210 207 201 196 193 189 186 184 181 179 181 181 181 182 185 186 187 190 202 219 231 242 257 265 271 281 288 294 301 311 319 323 325 330 339 346 352 356 356 356 358 360
255 202 215 233 232 235 245 244 243 251 250 245 241 233 230 236 239 240 241 242 243 248 251 253 255 254 251 251 250 247 246 248 248 245 241 236 236 236 235 231 226 221 216 212 210 208 203 197 193 189 187 185 181 180 180 180 181 182 184 186 188 193 205 216 221 226 238 250 262 278 289 295 304 314 321 326 334 341 345 347 352 359 0 0 2 3
308 255 242 253 245 241 245 239 236 244 249 248 246 243 241 241 242 242 244 246 246 248 251 252 254 254 254 254 253 249 247 250 251 247 240 238 239 241 239 232 223 218 215 212 210 206 201 197 193 189 186 184 181 180 179 179 181 183 183 186 192 198 205 209 210 211 221 239 258 276 289 297 308 318 322 328 341 357 0 356 353 354 357 1 3 2
247 251 252 254 252 252 251 242 236 240 246 248 249 250 250 249 246 244 245 247 247 248 249 250 251 252 253 254 253 249 247 251 251 245 240 240 241 241 237 230 222 216 212 209 205 200 195 193 191 189 186 183 181 180 179 180 182 182 184 190 195 200 203 203 202 205 213 232 252 271 286 297 311 319 322 330 344 359 12 17 8 357 354 356 356 355